[[{"header":{"parameterUnit":"m.s-1","parameterCategory":1,"la1":30.2991,"la2":30.254,"lo1":-89.0895,"lo2":-89.0444,"dy":0.0017,"dx":0.0017,"nx":28,"ny":28,"refTime":"2024-05-24T03:00:00:Z","depth":0,"parameterNumber":2,"parameterNumberName":"U-component_of_WINDS"},"data":[0,0,0,0,0,0,0,0,0,0,0,0,0,0,0,0,0,0,0,0,0,0,0,0,0,0,0,0,0,0,0,0,0,0,0,0,0,0,0,0,0,0,0,0,0,0,0,0,0,0,0,0,0,0,0,0,0,0,1.6998,1.6999,0,1.7031,1.7032,1.7032,1.6995,1.6994,1.6992,1.6991,1.7025,1.7027,1.7029,0,0,0,0,0,0,0,0,0,0,0,0,0,1.6902,1.6904,1.6998,1.6999,1.6999,1.7031,1.7032,1.7032,1.6995,1.6993,1.6992,1.699,1.7024,1.7026,1.7029,0,0,0,0,0,0,0,0,0,0,0,0,0,1.694,1.6904,1.6998,1.6984,1.6984,1.7031,1.7032,1.7032,1.6996,1.6993,1.6991,1.6989,1.7023,1.7026,1.7029,1.7092,0,0,1.704,1.7041,0,0,0,0,0,0,0,0,1.6938,1.6944,1.6986,1.6986,1.6985,1.7007,1.701,1.7052,1.6996,1.6991,1.6991,1.6988,1.702,1.7024,1.7035,1.7094,1.7095,1.704,1.7042,1.7043,1.7044,0,0,0,0,0,0,0,1.6935,1.6942,1.7011,1.6987,1.6986,1.6976,1.6979,1.7018,1.7017,1.6991,1.6989,1.6993,1.702,1.7031,1.7035,1.7095,1.704,1.7043,1.7045,1.7046,1.7205,1.7207,0,0,0,0,0,0,1.6934,1.694,1.701,1.7012,1.6956,1.698,1.6983,1.7002,1.7017,1.7017,1.6995,1.6991,1.7027,1.7031,1.7036,1.7108,1.7043,1.7046,1.7048,1.7203,1.7205,1.7208,0,0,0,0,0,0,1.6933,1.6941,1.7009,1.6975,1.6983,1.6984,1.7005,1.7004,1.7015,1.7019,1.7019,1.7007,1.7025,1.7031,1.7078,1.7109,1.7048,1.7051,1.72,1.7204,1.7207,1.7255,0,0,0,0,0,0,1.693,1.6941,1.6965,1.6976,1.6985,1.7051,1.7007,1.7006,1.7021,1.7017,1.7031,1.7031,1.7024,1.7073,1.7081,1.7113,1.7053,1.7197,1.7202,1.7206,1.725,1.7259,1.7267,0,0,0,0,0,1.6927,1.6977,1.6966,1.6975,1.7016,1.7052,1.7057,1.7049,1.7024,1.7048,1.705,1.7031,1.7105,1.7078,1.7087,1.712,1.7195,1.72,1.7205,1.7247,1.7257,1.7267,0,0,0,0,0,0,1.697,1.6979,1.6966,1.7023,1.7037,1.7046,1.7076,1.7061,1.7083,1.7078,1.7066,1.7069,1.7118,1.7124,1.7094,1.718,1.7146,1.7153,1.7174,1.7185,1.7193,1.719,1.7056,0,0,0,0,0,1.6986,1.7016,1.7022,1.7071,1.7078,1.7076,1.7092,1.7084,1.7098,1.7104,1.711,1.7124,1.715,1.7168,1.7193,1.7251,1.7253,1.7278,1.7286,1.7293,1.7299,1.7328,1.7339,1.7224,1.7224,1.7224,0,0,1.702,1.7028,1.7047,1.7079,1.709,1.7119,1.7081,1.7115,1.7137,1.7109,1.7152,1.7157,1.7173,1.7225,1.7248,1.7231,1.7331,1.73,1.7305,1.7307,1.7335,1.7345,1.7355,1.7228,1.7227,1.7227,0,0,1.7096,1.7106,1.7146,1.7157,1.7173,1.7171,1.7181,1.7192,1.7194,1.7237,1.7216,1.7242,1.7288,1.7299,1.7311,1.739,1.7372,1.7398,1.7441,1.747,1.7479,1.7487,1.7513,1.7523,1.7404,1.7404,1.7404,0,1.7135,1.718,1.7169,1.7204,1.7218,1.7194,1.7234,1.7245,1.7268,1.7278,1.7259,1.7315,1.7324,1.7377,1.7396,1.7407,1.7417,1.7396,1.7479,1.7486,1.7494,1.7518,1.7529,1.7407,1.7407,1.7407,1.7406,0,1.7227,1.7258,1.7289,1.7311,1.7328,1.7366,1.7361,1.738,1.737,1.7369,1.7413,1.7423,1.7448,1.746,1.7451,1.7512,1.7501,1.748,1.7446,1.7508,1.7531,1.754,1.7411,1.741,1.7409,1.7409,0,0,1.7331,1.7346,1.7357,1.7366,1.7381,1.7405,1.7441,1.7465,1.748,1.7497,1.7526,1.7565,1.7546,1.7559,1.7551,1.7576,1.7636,1.7553,1.7553,1.7566,1.7701,1.7715,1.7726,1.7625,1.7626,1.7628,1.7699,0,1.7405,1.7467,1.7459,1.7518,1.7546,1.7522,1.7553,1.7566,1.7566,1.7589,1.759,1.7617,1.759,1.7598,1.7622,1.7623,1.7662,1.7618,1.765,1.7651,1.7645,1.7739,1.7754,1.7821,1.7708,1.771,1.7711,0,1.7501,1.752,1.7582,1.7591,1.7602,1.763,1.7651,1.7674,1.7686,1.7685,1.7699,1.7686,1.7721,1.7687,1.7734,1.7704,1.7716,1.7719,1.7721,1.7723,1.7684,1.7741,1.7842,1.7851,1.7725,1.7724,1.7723,0,1.7568,1.761,1.7651,1.766,1.7672,1.7692,1.7698,1.7709,1.7723,1.7741,1.775,1.7773,1.7784,1.7801,1.7794,1.777,1.7842,1.7807,1.7841,1.7841,1.7856,1.7855,1.7959,1.7867,1.7867,1.7866,1.7866,0,1.7651,1.769,1.7681,1.7707,1.7749,1.7738,1.778,1.7783,1.7792,1.7818,1.78,1.7823,1.7813,1.7836,1.7831,1.787,1.7876,1.7875,1.7872,1.7875,1.7875,1.7882,1.7877,1.7869,1.7869,1.7868,1.7868,0,1.7733,1.7729,1.7773,1.7781,1.7783,1.7814,1.782,1.7843,1.7842,1.7874,1.7881,1.7879,1.7905,1.79,1.7929,1.7925,1.7973,1.7966,1.7969,1.7966,1.7999,1.7995,1.811,1.8123,1.8025,1.8026,1.8026,0,1.7786,1.7814,1.7825,1.784,1.7847,1.7873,1.7887,1.7878,1.7893,1.7909,1.793,1.7955,1.7974,1.8016,1.8017,1.8039,1.8031,1.807,1.8034,1.8035,1.8029,1.8027,1.8029,1.8076,1.8077,1.8078,1.8079,0,1.7879,1.7875,1.7897,1.7917,1.7935,1.7951,1.7965,1.7978,1.797,1.7988,1.8014,1.8029,1.8058,1.8082,1.8102,1.8107,1.8091,1.809,1.8099,1.8101,1.81,1.8099,1.7986,1.8087,1.8087,1.8086,1.8085,1.8085,1.7946,1.797,1.798,1.8004,1.8014,1.8027,1.8049,1.805,1.8072,1.8094,1.8087,1.8117,1.8127,1.8152,1.816,1.8182,1.8168,1.8181,1.8183,1.8186,1.8189,1.8098,1.8186,1.8186,1.8186,1.8186,1.8185,0,1.8036,1.8042,1.8064,1.8084,1.8102,1.8086,1.8101,1.8117,1.8143,1.8154,1.8173,1.8202,1.8225,1.8228,1.8249,1.8266,1.8259,1.8272,1.8269,1.8271,1.8202,1.8192,1.8277,1.8277,1.8277,1.8277,1.8277,1.8277,1.8085,1.8124,1.8121,1.8164,1.8169,1.8197,1.8207,1.8218,1.8227,1.826,1.8279,1.828,1.8288,1.8309,1.8329,1.8329,1.8337,1.8352,1.8349,1.8285,1.8276,1.8267,1.8257,1.8354,1.8354,1.8415,1.8416,1.8416]},{"header":{"parameterUnit":"m.s-1","parameterCategory":1,"la1":30.2991,"la2":30.254,"lo1":-89.0895,"lo2":-89.0444,"dy":0.0017,"dx":0.0017,"nx":28,"ny":28,"refTime":"2024-05-24T03:00:00:Z","depth":0,"parameterNumber":3,"parameterNumberName":"V-component_of_WINDS"},"data":[0,0,0,0,0,0,0,0,0,0,0,0,0,0,0,0,0,0,0,0,0,0,0,0,0,0,0,0,0,0,0,0,0,0,0,0,0,0,0,0,0,0,0,0,0,0,0,0,0,0,0,0,0,0,0,0,0,0,4.3974,4.3975,0,4.4053,4.4054,4.4055,4.4019,4.4017,4.4015,4.4013,4.4089,4.4092,4.4096,0,0,0,0,0,0,0,0,0,0,0,0,0,4.3786,4.3789,4.3974,4.3975,4.3976,4.4053,4.4054,4.4055,4.4019,4.4017,4.4014,4.4012,4.4087,4.4092,4.4096,0,0,0,0,0,0,0,0,0,0,0,0,0,4.3866,4.379,4.3974,4.3968,4.3968,4.4053,4.4054,4.4055,4.402,4.4017,4.4014,4.4011,4.4086,4.4091,4.4097,4.4191,0,0,4.4115,4.4117,0,0,0,0,0,0,0,0,4.3862,4.3873,4.3967,4.3968,4.3969,4.4023,4.4015,4.4101,4.402,4.4,4.4013,4.401,4.4069,4.4076,4.4097,4.4194,4.4198,4.4115,4.4119,4.4121,4.4123,0,0,0,0,0,0,0,4.3856,4.3869,4.4005,4.3969,4.3969,4.3958,4.3967,4.4031,4.405,4.4001,4.3999,4.4009,4.4068,4.4091,4.4098,4.4199,4.4115,4.412,4.4124,4.4126,4.4375,4.4378,0,0,0,0,0,0,4.3851,4.3865,4.4002,4.4007,4.3907,4.3964,4.3974,4.4008,4.4049,4.4052,4.4012,4.4007,4.4083,4.4092,4.4101,4.4212,4.4121,4.4126,4.413,4.4372,4.4376,4.4379,0,0,0,0,0,0,4.3848,4.3864,4.3999,4.3936,4.3952,4.3971,4.401,4.4012,4.4035,4.4057,4.4059,4.4032,4.4081,4.4093,4.4169,4.4215,4.4129,4.4134,4.4368,4.4373,4.4378,4.4437,0,0,0,0,0,0,4.3842,4.3863,4.3901,4.3937,4.3956,4.4068,4.4013,4.4015,4.4045,4.404,4.4076,4.408,4.408,4.416,4.4174,4.4221,4.4139,4.4364,4.437,4.4376,4.4431,4.4443,4.4454,0,0,0,0,0,4.3836,4.3913,4.3903,4.3919,4.4003,4.4071,4.4081,4.4082,4.4049,4.4086,4.41,4.4078,4.4207,4.4169,4.4184,4.4233,4.4361,4.4369,4.4376,4.4426,4.4441,4.4454,0,0,0,0,0,0,4.388,4.3918,4.3907,4.3999,4.4032,4.4065,4.4111,4.4098,4.4139,4.4133,4.4129,4.4138,4.4216,4.4232,4.4188,4.4325,4.4279,4.429,4.4312,4.4326,4.4337,4.4332,4.4143,0,0,0,0,0,4.3901,4.3955,4.3984,4.4062,4.408,4.4093,4.4122,4.4119,4.4153,4.4166,4.4186,4.4218,4.4265,4.4296,4.4341,4.4433,4.4439,4.4474,4.4485,4.4494,4.4504,4.4551,4.4567,4.4403,4.4403,4.4403,0,0,4.3944,4.3971,4.4005,4.4072,4.4097,4.4151,4.4105,4.4164,4.4203,4.4175,4.4248,4.4263,4.4298,4.4382,4.442,4.4398,4.455,4.4504,4.4511,4.4515,4.456,4.4576,4.459,4.4408,4.4407,4.4406,0,0,4.405,4.4077,4.4145,4.4171,4.4211,4.4219,4.4235,4.427,4.4279,4.4353,4.4333,4.4378,4.446,4.4486,4.4509,4.4623,4.4605,4.4638,4.4697,4.4743,4.4756,4.4768,4.4807,4.4822,4.4647,4.4647,4.4647,0,4.4098,4.418,4.418,4.4241,4.427,4.4248,4.4316,4.4341,4.4392,4.4412,4.4386,4.4488,4.451,4.4599,4.4627,4.4647,4.4664,4.4634,4.4755,4.4766,4.4777,4.4814,4.4829,4.465,4.465,4.465,4.4649,0,4.4237,4.4294,4.4343,4.4395,4.443,4.4493,4.4501,4.4535,4.4529,4.4539,4.4613,4.4638,4.4688,4.4708,4.4702,4.4796,4.4781,4.4755,4.4709,4.4796,4.4831,4.4846,4.4656,4.4654,4.4653,4.4652,0,0,4.4374,4.4425,4.4443,4.4466,4.4507,4.455,4.4611,4.4661,4.469,4.4726,4.4776,4.4845,4.4822,4.4849,4.4845,4.4886,4.4973,4.4855,4.4856,4.4875,4.5076,4.5095,4.5112,4.4961,4.4963,4.4966,4.5073,0,4.4482,4.4593,4.4594,4.4694,4.4745,4.4725,4.4778,4.4807,4.4818,4.4861,4.4871,4.4921,4.4886,4.4902,4.4942,4.4954,4.5013,4.4946,4.5005,4.5008,4.4998,4.513,4.5151,4.5251,4.5087,4.5089,4.5091,0,4.4624,4.4666,4.4772,4.4805,4.4827,4.4875,4.4919,4.4962,4.4994,4.4998,4.5028,4.5018,4.5078,4.503,4.5111,4.5066,4.5089,4.5099,4.5103,4.5108,4.5054,4.5139,4.5283,4.5297,4.5112,4.5111,4.5109,0,4.4713,4.4795,4.4869,4.4889,4.493,4.4964,4.4982,4.5011,4.5041,4.5079,4.5097,4.5141,4.5165,4.5199,4.5199,4.5165,4.5281,4.5233,4.5285,4.5285,4.531,4.5309,4.546,4.5327,4.5326,4.5326,4.5326,0,4.4834,4.4899,4.491,4.4955,4.5027,4.5026,4.5096,4.5111,4.5137,4.5183,4.5167,4.521,4.5208,4.5251,4.5252,4.5318,4.5329,4.5333,4.5332,4.5335,4.5334,4.535,4.5343,4.533,4.5329,4.5328,4.5328,0,4.4945,4.4955,4.5034,4.5066,4.5075,4.5127,4.5152,4.5194,4.5203,4.5261,4.5274,4.5287,4.5337,4.5341,4.5398,4.5398,4.5478,4.547,4.5468,4.5467,4.5518,4.5513,4.5684,4.5706,4.5559,4.556,4.5561,0,4.5022,4.5072,4.5109,4.514,4.516,4.521,4.524,4.524,4.5271,4.5311,4.5348,4.5396,4.5435,4.5514,4.5527,4.557,4.5563,4.562,4.5569,4.5569,4.5563,4.556,4.5564,4.563,4.5631,4.5633,4.5634,0,4.5157,4.5159,4.5204,4.5251,4.5287,4.5323,4.5357,4.5382,4.5386,4.5422,4.5473,4.5503,4.5562,4.5609,4.5651,4.5667,4.5651,4.565,4.5664,4.5666,4.5663,4.5665,4.5495,4.5646,4.5644,4.5644,4.5643,4.5642,4.5253,4.5296,4.5329,4.5379,4.5404,4.5436,4.5477,4.549,4.5534,4.5583,4.5579,4.5636,4.5664,4.5719,4.5738,4.5781,4.5761,4.5782,4.5787,4.5792,4.5797,4.5656,4.5788,4.5788,4.5788,4.5788,4.5787,0,4.5386,4.5406,4.5452,4.5501,4.5539,4.5522,4.5558,4.5591,4.5642,4.5671,4.5709,4.5767,4.5813,4.5829,4.5873,4.5904,4.5897,4.5915,4.5912,4.5916,4.5812,4.5796,4.5919,4.5919,4.5919,4.5919,4.5919,4.5919,4.546,4.5532,4.5538,4.5621,4.5639,4.5696,4.5718,4.5746,4.5769,4.5835,4.5874,4.5884,4.5908,4.5953,4.5993,4.5996,4.6013,4.6034,4.6034,4.5937,4.5924,4.5911,4.5895,4.6038,4.6038,4.6134,4.6135,4.6136]}]]